SCP
0 0 0 0 0 0 0 0 0 0 0 0 0 0 -0 -0 -0 -0 -0 -0 -0 -0 -0 -0 -0 -0 -0 -0 -0 0 0 0 0 0 0 0 0 0 0 0 0 -0 0 0
0 0 0 0 0 0 0 0 0 0 0 0 0 0 0 -0 -0 -0 -0 -0 -0 -0 -0 -0 -0 -0 -0 -0 -0 -0 0 0 0 0 0 0 0 0 0 0 0 0 0 0
0 0 -0 0 0 0 0 0 0 0 0 0 0 0 0 0 -0 -0 -0 -0 -0 -0 -0 -0 -0 -0 -0 -0 -0 -0 -0 0 0 0 0 0 0 0 0 0 0 0 0 0
0 0 0 0 0 0 0 0 0 0 0 0 0 0 0 0 -0 -0 -0 -0 -0 -0 -0 -0 -0 -0 -0 -0 -0 -0 -0 0 0 0 0 0 0 0 0 0 0 0 0 0
0 0 0 0 0 0 0 0 0 0 0 0 0 0 0 0 -0 -0 -0 -0 -0 -0 -0 -0 -0 -0 -0 -0 -0 -0 -0 -0 0 0 0 0 0 0 0 0 0 0 0 0
0 0 0 0 0 0 0 0 0 0 0 0 0 0 0 0 -0 -0 -0 -0 -0 -0 -0 -0 -0 -0 -0 -0 -0 -0 -0 -0 0 0 0 0 0 0 0 0 0 0 0 0
0 0 0 0 0 0 0 0 0 0 0 0 0 0 0 0 -0 -0 -0 -0 -0 -0 -0 -0 -0 -0 -0 -0 -0 -0 -0 -0 -0 0 0 0 0 0 0 0 0 0 0 0
0 0 0 0 0 0 0 0 0 0 0 0 0 0 0 0 0 0 -0 -0 -0 -0 0 0 -0 -0 -0 -0 -0 -0 -0 -0 -0 -0 -0 0 -0 0 0 0 0 0 0 -0
0 0 0 0 0 0 0 0 0 0 0 0 0 0 0 0 0 0 -0 -0 -0 -0 0 0 -0 -0 -0 -0 -0 -0 -0 -0 -0 -0 -0 -0 -0 -0 0 0 0 0 0 0
0 0 0 0 0 0 0 0 0 0 0 0 0 0 0 0 0 0 0 -0 -0 -0 0 0 -0 -0 -0 -0 -0 -0 0 -0 -0 -0 0 0 0 0 0 0 0 0 0 0
0 0 0 0 0 0 0 0 0 0 0 0 0 0 0 0 0 0 0 0 -0 -0 0 0 0 -0 -0 0 0 0 0 0 0 0 -0 0 0 -0 0 0 -0 -0 -0 -0
0 0 0 0 0 0 0 0 0 0 0 0 0 0 0 0 0 0 0 0 0 0 0 0 0 0 0 0 0 0 0 0 0 0 0 0 0 0 0 0 -0 -0 -0 -0
0 0 0 0 0 0 0 0 0 0 0 0 0 0 0 0 0 0 0 0 0 0 0 0 0 0 0 0 0 0 0 0 0 0 0 0 0 0 0 0 0 0 -0 -0
-0 0 0 0 0 0 0 0 0 0 0 0 0 0 0 0 0 0 0 0 0 0 0 0 0 0 0 0 0 0 0 0 0 0 0 0 0 0 0 0 0 0 -0 -0
-0 -0 0 0 0 0 0 0 0 0 0 0 0 0 0 0 0 0 0 0 0 0 0 0 0 0 0 0 0 0 0 0 0 0 0 0 0 0 0 0 0 0 0 0
0 -0 -0 -0 0 0 0 0 0 0 0 0 0 0 0 0 0 0 0 0 0 0 0 0 0 0 0 0 0 0 0 0 0 0 0 0 0 0 0 0 0 0 0 0
0 0 -0 -0 0 0 0 0 0 0 0 0 0 0 0 0 0 0 0 0 0 0 0 0 0 0 0 0 0 0 0 0 0 0 0 0 0 0 0 0 0 0 0 0
-0 0 0 -0 -0 0 0 0 0 0 0 0 0 0 0 0 0 0 0 0 0 0 0 0 0 0 0 0 0 0 0 0 0 0 0 0 0 0 0 0 0 0 0 0
0 0 0 0 -0 0 0 0 0 0 0 0 0 0 0 0 0 0 0 0 0 0 0 0 0 0 0 0 0 0 0 0 0 0 0 0 0 0 0 0 0 0 0 0
0 0 0 0 0 0 0 0 0 0 0 0 0 0 0 0 0 0 0 0 0 0 0 0 0 0 0 0 0 0 0 0 0 0 0 0 0 0 0 0 0 0 0 0
0 0 0 0 0 0 0 0 0 0 0 0 0 0 0 0 0 0 0 0 0 0 0 0 0 0 0 0 0 0 0 0 0 0 0 0 0 0 0 0 0 0 0 0
0 0 0 0 0 0 0 0 0 0 0 0 0 0 0 0 0 0 0 0 0 0 0 0 0 0 0 0 0 0 0 0 0 0 0 0 0 0 0 0 0 0 0 0
0 0 0 0 0 0 0 0 0 0 0 0 0 0 -0 -0 0 0 0 0 0 0 0 0 0 0 0 0 0 0 0 0 0 0 0 0 0 0 0 0 0 0 0 0
0 0 0 0 0 0 0 0 0 0 0 0 0 0 0 0 0 0 0 0 0 0 0 0 0 0 0 0 0 0 0 0 0 0 0 0 0 0 0 0 0 0 0 0
-0 0 0 0 0 0 0 0 0 0 0 0 0 0 0 0 0 0 0 0 0 0 0 0 0 0 0 0 0 0 0 0 0 0 0 0 0 0 0 0 0 0 0 0
0 0 0 0 0 0 0 0 0 0 0 0 0 0 0 0 0 0 0 0 0 0 0 0 0 0 0 0 0 0 0 0 0 0 0 0 0 0 0 0 0 0 0 0
0 -0 0 -0 0 0 0 0 0 0 0 0 0 0 0 0 0 0 0 0 0 0 0 0 0 0 0 0 0 0 0 0 0 0 0 0 0 0 0 0 0 0 0 0
Wind_Speed_500mb
58 35 8 13 36 41 34 29 29 16 21 17 23 29 40 68 63 66 73 76 76 74 67 56 52 43 36 26 35 31 22 20 11 13 19 23 22 19 22 21 23 25 19 24
41 58 52 32 18 48 42 19 16 25 13 19 35 51 40 56 65 66 76 81 80 77 69 62 56 48 44 34 38 39 28 23 11 23 28 23 21 22 19 18 18 20 17 19
40 40 41 37 46 20 31 37 24 16 16 17 12 23 46 54 69 73 80 85 84 83 77 66 60 51 49 42 38 43 33 26 16 28 31 25 22 28 20 16 16 13 21 29
12 12 21 26 24 29 31 36 35 15 19 29 22 56 64 84 84 78 85 87 87 84 79 68 59 54 45 49 43 46 38 31 24 29 36 30 27 25 22 16 10 14 23 23
6 28 10 22 17 26 17 19 25 34 21 23 44 43 17 89 92 94 91 86 88 85 79 71 64 58 54 56 50 52 42 37 29 27 41 38 34 30 26 21 14 19 21 22
7 12 27 12 12 16 15 20 20 22 26 22 23 15 11 79 94 93 90 87 87 87 83 73 70 66 64 62 59 57 45 36 32 23 39 36 40 34 29 23 17 21 25 21
10 8 10 11 14 14 27 20 13 42 35 24 19 27 53 66 83 92 96 90 84 86 86 79 74 74 72 65 66 52 43 34 36 28 30 35 42 38 33 27 20 21 27 28
7 9 5 40 12 10 11 14 51 56 59 61 67 60 64 56 71 89 96 93 87 84 88 82 79 79 76 69 60 53 46 38 43 39 28 34 35 39 36 35 32 28 23 26
9 5 23 18 30 41 43 25 18 62 75 75 64 62 59 53 57 77 91 94 90 81 87 86 84 82 76 67 62 58 52 44 46 48 41 34 32 38 41 36 44 40 34 26
23 4 40 38 75 77 75 61 39 44 84 76 68 71 62 56 51 62 88 93 90 87 89 88 87 85 72 63 61 61 58 51 51 54 50 44 40 34 40 43 47 51 41 39
17 21 48 28 71 70 78 66 52 8 46 70 68 72 68 56 50 54 79 92 94 89 85 83 85 87 79 65 65 64 61 57 60 58 56 51 45 36 36 41 46 52 49 40
7 29 21 38 67 66 79 73 55 46 23 16 31 70 74 65 58 62 81 93 96 86 80 84 84 83 79 71 66 66 65 65 67 66 65 59 53 46 39 28 34 43 43 43
12 38 52 57 54 62 71 79 60 38 38 28 26 12 11 70 64 64 83 93 88 83 79 83 82 81 77 75 71 69 69 69 70 67 70 67 62 53 45 43 38 42 50 48
27 32 43 30 52 72 73 75 64 51 30 38 25 17 8 11 67 72 82 93 84 79 80 79 80 70 72 76 75 70 71 68 72 71 69 72 67 58 50 45 47 52 53 58
23 36 44 49 53 66 61 68 70 64 60 45 42 23 23 10 20 81 88 93 83 80 72 71 70 69 69 72 74 75 74 76 76 75 71 69 68 65 58 50 48 46 54 60
36 29 29 30 37 53 60 53 62 60 54 58 68 29 26 20 19 42 91 87 87 85 74 64 62 62 64 67 67 70 71 76 81 79 77 74 73 70 64 59 52 52 57 58
40 17 22 13 27 37 60 44 48 51 44 46 60 52 23 17 37 55 81 79 79 75 68 65 59 57 56 57 62 65 67 74 79 83 78 77 76 73 68 62 57 55 57 59
46 44 30 26 24 38 51 39 43 48 43 28 42 41 35 24 57 34 61 65 78 78 74 65 52 52 55 53 57 65 67 69 77 81 82 79 79 76 73 68 63 59 56 54
46 42 36 28 32 38 39 43 43 27 29 32 31 45 27 37 28 16 25 50 66 78 77 72 65 63 56 56 57 67 67 67 72 81 82 83 84 82 80 76 72 69 66 62
48 43 37 26 37 43 54 57 32 25 18 28 29 47 36 37 32 15 11 37 53 61 59 52 49 42 39 57 64 72 68 66 66 74 83 86 87 88 86 80 77 75 72 73
44 40 33 25 41 45 59 50 44 42 33 18 29 42 42 46 32 26 32 25 28 45 43 39 35 32 31 36 50 71 75 74 72 71 74 73 77 81 81 81 79 76 76 78
26 33 30 22 30 32 55 37 38 45 33 25 22 28 38 44 44 30 42 39 44 45 42 41 36 32 26 29 32 31 48 64 67 67 72 69 66 68 73 80 83 78 67 66
15 24 26 13 6 18 25 41 35 20 15 39 48 31 27 35 35 27 40 36 45 53 48 48 43 36 31 29 32 38 42 45 42 56 65 67 66 61 53 54 66 70 71 65
9 13 24 17 7 16 16 10 10 37 32 21 34 40 26 22 26 23 29 31 39 42 34 30 35 36 40 32 32 35 37 35 38 47 43 52 58 55 48 49 52 65 72 77
29 19 13 26 25 24 27 25 22 18 28 43 27 27 39 38 32 35 42 39 36 33 29 17 13 13 19 25 28 33 36 35 33 31 34 46 48 49 51 53 53 52 55 58
52 38 25 3 17 28 34 34 23 19 28 30 38 43 44 48 48 52 53 45 41 41 42 37 33 30 25 20 18 19 21 21 20 19 18 20 25 29 32 36 40 44 48 48
59 55 57 45 24 11 16 26 27 17 15 35 38 50 50 48 53 51 46 46 46 37 25 22 21 20 15 4 7 7 8 10 9 9 11 14 17 20 22 24 26 32 43 52
Wind_Direction_500mb
220 243 245 206 207 199 198 193 192 189 178 191 177 174 178 177 173 171 179 183 187 190 192 193 193 194 193 187 189 197 192 192 184 153 149 134 128 115 103 119 99 90 133 134
217 229 237 250 263 207 208 190 144 162 206 187 186 184 169 177 172 178 183 189 194 196 195 195 195 193 193 188 189 198 195 198 183 160 147 141 129 128 128 110 98 89 112 143
219 215 233 240 239 225 202 193 149 168 196 157 176 165 179 180 180 184 188 191 198 199 199 198 197 194 194 191 189 196 196 197 192 172 163 156 149 150 134 121 105 99 98 130
251 167 220 237 199 220 209 194 181 165 163 169 186 201 189 187 185 189 191 195 203 202 202 200 198 196 192 192 192 197 196 197 197 181 169 163 164 162 156 141 103 117 119 126
234 195 255 227 202 193 173 217 184 180 182 182 179 188 182 194 197 195 196 200 203 205 205 199 197 194 190 192 195 199 198 196 200 194 179 180 177 176 174 166 142 145 139 128
327 155 215 213 177 179 144 215 186 160 189 190 134 171 217 195 200 200 199 200 202 207 204 201 197 193 190 193 196 200 202 199 198 192 188 188 187 187 183 182 161 156 161 154
236 284 290 236 197 103 180 221 171 182 189 173 186 192 200 191 201 205 200 199 202 205 205 202 198 195 194 195 199 204 204 201 198 198 191 186 184 189 197 198 192 161 166 165
189 228 100 347 297 108 283 256 194 201 193 190 204 209 206 196 192 200 200 198 200 203 205 203 200 196 198 200 202 198 201 198 200 202 189 189 193 190 196 203 201 183 172 169
322 355 310 329 46 359 10 328 242 202 207 199 188 183 181 179 189 195 197 197 198 201 203 204 201 200 201 204 198 194 196 197 198 204 201 195 195 200 200 201 199 196 194 192
332 345 325 353 9 7 10 358 329 224 204 205 191 180 178 179 184 190 198 196 196 200 202 203 203 205 209 204 197 195 196 199 202 206 206 205 206 207 207 206 200 199 204 208
268 332 331 352 1 359 355 1 15 296 205 203 200 188 187 186 192 194 197 194 196 198 202 205 205 206 206 204 198 197 198 201 207 210 211 209 213 215 215 216 212 205 209 211
288 319 295 309 328 334 348 354 8 12 80 137 191 195 191 188 185 188 190 194 196 198 204 206 205 207 206 203 203 200 198 203 208 212 213 213 213 215 217 219 221 219 220 221
253 280 288 304 332 340 344 355 358 0 18 91 117 171 229 190 189 192 196 198 195 199 206 208 206 208 207 204 205 206 205 203 209 214 215 216 216 219 218 214 214 216 218 218
255 299 292 311 328 334 341 353 5 5 9 24 62 77 112 330 195 195 195 192 195 199 204 205 205 206 207 207 208 209 212 211 210 214 218 219 221 224 224 224 220 213 211 210
275 258 285 303 311 322 328 343 356 3 6 9 7 31 42 23 328 194 194 192 194 197 198 197 204 206 205 207 210 212 215 215 215 219 221 223 225 226 228 228 229 227 211 209
315 267 245 295 305 315 324 333 340 350 2 14 13 8 359 350 317 249 194 191 190 191 193 194 204 209 207 207 210 213 216 220 219 220 225 224 226 227 229 232 233 230 223 219
330 319 220 281 305 292 309 310 321 341 356 4 18 6 346 312 307 295 187 192 195 194 194 200 204 207 208 211 213 214 214 219 223 224 226 229 229 230 233 234 236 234 233 228
296 286 284 254 278 256 280 286 316 335 359 338 17 21 33 329 280 233 176 186 193 195 198 201 199 205 211 217 221 220 217 218 220 225 229 230 233 234 234 237 239 240 241 237
283 280 270 263 261 255 265 258 283 307 352 360 11 14 20 343 327 29 164 175 190 193 196 202 207 210 213 220 222 223 225 223 223 224 229 235 236 239 240 239 240 243 244 242
283 263 264 270 247 255 243 235 266 270 325 350 338 342 344 341 330 262 124 153 163 178 181 183 189 190 200 221 225 225 227 229 227 227 230 234 237 240 241 244 246 247 247 249
270 247 251 261 245 243 227 239 230 262 287 274 335 329 324 322 314 278 212 178 178 174 182 183 188 189 193 202 219 227 229 231 233 232 232 239 241 240 242 244 246 247 248 250
259 244 245 269 246 246 221 225 226 242 260 260 303 324 328 325 311 235 219 218 202 193 196 205 212 212 214 208 206 210 223 230 234 237 238 241 245 244 243 242 245 243 247 252
288 236 228 229 175 163 164 194 183 176 205 242 246 279 296 288 318 224 207 213 187 185 191 203 211 218 219 216 207 207 211 215 220 228 233 239 244 247 247 246 245 244 244 250
334 255 240 232 218 218 215 174 152 201 228 254 239 253 262 273 273 256 202 182 183 183 188 195 203 218 228 239 241 234 233 230 229 229 226 228 235 245 248 239 239 242 245 249
29 12 256 247 251 256 252 250 262 255 220 229 249 232 243 240 228 198 174 184 185 181 180 193 213 196 218 240 244 235 230 233 233 235 237 233 233 239 241 238 239 241 245 252
40 47 54 4 256 259 255 257 244 257 250 224 226 230 218 209 187 181 180 171 156 159 156 148 136 126 121 130 154 172 181 177 176 185 197 207 216 225 232 237 239 245 252 254
39 33 36 53 61 78 175 172 163 173 252 204 205 194 192 187 172 165 162 159 164 169 173 184 191 205 204 281 231 203 214 202 198 218 225 227 234 244 251 253 252 252 252 250
Wind_Speed_850mb
58 35 8 13 36 41 34 29 29 16 21 17 23 29 40 68 63 66 73 76 76 74 67 56 52 43 36 26 35 31 22 20 11 13 19 23 22 19 22 21 23 25 19 24
41 58 52 32 18 48 42 19 16 25 13 19 35 51 40 56 65 66 76 81 80 77 69 62 56 48 44 34 38 39 28 23 11 23 28 23 21 22 19 18 18 20 17 19
40 40 41 37 46 20 31 37 24 16 16 17 12 23 46 54 69 73 80 85 84 83 77 66 60 51 49 42 38 43 33 26 16 28 31 25 22 28 20 16 16 13 21 29
12 12 21 26 24 29 31 36 35 15 19 29 22 56 64 84 84 78 85 87 87 84 79 68 59 54 45 49 43 46 38 31 24 29 36 30 27 25 22 16 10 14 23 23
6 28 10 22 17 26 17 19 25 34 21 23 44 43 17 89 92 94 91 86 88 85 79 71 64 58 54 56 50 52 42 37 29 27 41 38 34 30 26 21 14 19 21 22
7 12 27 12 12 16 15 20 20 22 26 22 23 15 11 79 94 93 90 87 87 87 83 73 70 66 64 62 59 57 45 36 32 23 39 36 40 34 29 23 17 21 25 21
10 8 10 11 14 14 27 20 13 42 35 24 19 27 53 66 83 92 96 90 84 86 86 79 74 74 72 65 66 52 43 34 36 28 30 35 42 38 33 27 20 21 27 28
7 9 5 40 12 10 11 14 51 56 59 61 67 60 64 56 71 89 96 93 87 84 88 82 79 79 76 69 60 53 46 38 43 39 28 34 35 39 36 35 32 28 23 26
9 5 23 18 30 41 43 25 18 62 75 75 64 62 59 53 57 77 91 94 90 81 87 86 84 82 76 67 62 58 52 44 46 48 41 34 32 38 41 36 44 40 34 26
23 4 40 38 75 77 75 61 39 44 84 76 68 71 62 56 51 62 88 93 90 87 89 88 87 85 72 63 61 61 58 51 51 54 50 44 40 34 40 43 47 51 41 39
17 21 48 28 71 70 78 66 52 8 46 70 68 72 68 56 50 54 79 92 94 89 85 83 85 87 79 65 65 64 61 57 60 58 56 51 45 36 36 41 46 52 49 40
7 29 21 38 67 66 79 73 55 46 23 16 31 70 74 65 58 62 81 93 96 86 80 84 84 83 79 71 66 66 65 65 67 66 65 59 53 46 39 28 34 43 43 43
12 38 52 57 54 62 71 79 60 38 38 28 26 12 11 70 64 64 83 93 88 83 79 83 82 81 77 75 71 69 69 69 70 67 70 67 62 53 45 43 38 42 50 48
27 32 43 30 52 72 73 75 64 51 30 38 25 17 8 11 67 72 82 93 84 79 80 79 80 70 72 76 75 70 71 68 72 71 69 72 67 58 50 45 47 52 53 58
23 36 44 49 53 66 61 68 70 64 60 45 42 23 23 10 20 81 88 93 83 80 72 71 70 69 69 72 74 75 74 76 76 75 71 69 68 65 58 50 48 46 54 60
36 29 29 30 37 53 60 53 62 60 54 58 68 29 26 20 19 42 91 87 87 85 74 64 62 62 64 67 67 70 71 76 81 79 77 74 73 70 64 59 52 52 57 58
40 17 22 13 27 37 60 44 48 51 44 46 60 52 23 17 37 55 81 79 79 75 68 65 59 57 56 57 62 65 67 74 79 83 78 77 76 73 68 62 57 55 57 59
46 44 30 26 24 38 51 39 43 48 43 28 42 41 35 24 57 34 61 65 78 78 74 65 52 52 55 53 57 65 67 69 77 81 82 79 79 76 73 68 63 59 56 54
46 42 36 28 32 38 39 43 43 27 29 32 31 45 27 37 28 16 25 50 66 78 77 72 65 63 56 56 57 67 67 67 72 81 82 83 84 82 80 76 72 69 66 62
48 43 37 26 37 43 54 57 32 25 18 28 29 47 36 37 32 15 11 37 53 61 59 52 49 42 39 57 64 72 68 66 66 74 83 86 87 88 86 80 77 75 72 73
44 40 33 25 41 45 59 50 44 42 33 18 29 42 42 46 32 26 32 25 28 45 43 39 35 32 31 36 50 71 75 74 72 71 74 73 77 81 81 81 79 76 76 78
26 33 30 22 30 32 55 37 38 45 33 25 22 28 38 44 44 30 42 39 44 45 42 41 36 32 26 29 32 31 48 64 67 67 72 69 66 68 73 80 83 78 67 66
15 24 26 13 6 18 25 41 35 20 15 39 48 31 27 35 35 27 40 36 45 53 48 48 43 36 31 29 32 38 42 45 42 56 65 67 66 61 53 54 66 70 71 65
9 13 24 17 7 16 16 10 10 37 32 21 34 40 26 22 26 23 29 31 39 42 34 30 35 36 40 32 32 35 37 35 38 47 43 52 58 55 48 49 52 65 72 77
29 19 13 26 25 24 27 25 22 18 28 43 27 27 39 38 32 35 42 39 36 33 29 17 13 13 19 25 28 33 36 35 33 31 34 46 48 49 51 53 53 52 55 58
52 38 25 3 17 28 34 34 23 19 28 30 38 43 44 48 48 52 53 45 41 41 42 37 33 30 25 20 18 19 21 21 20 19 18 20 25 29 32 36 40 44 48 48
59 55 57 45 24 11 16 26 27 17 15 35 38 50 50 48 53 51 46 46 46 37 25 22 21 20 15 4 7 7 8 10 9 9 11 14 17 20 22 24 26 32 43 52
Wind_Direction_850mb
220 243 245 206 207 199 198 193 192 189 178 191 177 174 178 177 173 171 179 183 187 190 192 193 193 194 193 187 189 197 192 192 184 153 149 134 128 115 103 119 99 90 133 134
217 229 237 250 263 207 208 190 144 162 206 187 186 184 169 177 172 178 183 189 194 196 195 195 195 193 193 188 189 198 195 198 183 160 147 141 129 128 128 110 98 89 112 143
219 215 233 240 239 225 202 193 149 168 196 157 176 165 179 180 180 184 188 191 198 199 199 198 197 194 194 191 189 196 196 197 192 172 163 156 149 150 134 121 105 99 98 130
251 167 220 237 199 220 209 194 181 165 163 169 186 201 189 187 185 189 191 195 203 202 202 200 198 196 192 192 192 197 196 197 197 181 169 163 164 162 156 141 103 117 119 126
234 195 255 227 202 193 173 217 184 180 182 182 179 188 182 194 197 195 196 200 203 205 205 199 197 194 190 192 195 199 198 196 200 194 179 180 177 176 174 166 142 145 139 128
327 155 215 213 177 179 144 215 186 160 189 190 134 171 217 195 200 200 199 200 202 207 204 201 197 193 190 193 196 200 202 199 198 192 188 188 187 187 183 182 161 156 161 154
236 284 290 236 197 103 180 221 171 182 189 173 186 192 200 191 201 205 200 199 202 205 205 202 198 195 194 195 199 204 204 201 198 198 191 186 184 189 197 198 192 161 166 165
189 228 100 347 297 108 283 256 194 201 193 190 204 209 206 196 192 200 200 198 200 203 205 203 200 196 198 200 202 198 201 198 200 202 189 189 193 190 196 203 201 183 172 169
322 355 310 329 46 359 10 328 242 202 207 199 188 183 181 179 189 195 197 197 198 201 203 204 201 200 201 204 198 194 196 197 198 204 201 195 195 200 200 201 199 196 194 192
332 345 325 353 9 7 10 358 329 224 204 205 191 180 178 179 184 190 198 196 196 200 202 203 203 205 209 204 197 195 196 199 202 206 206 205 206 207 207 206 200 199 204 208
268 332 331 352 1 359 355 1 15 296 205 203 200 188 187 186 192 194 197 194 196 198 202 205 205 206 206 204 198 197 198 201 207 210 211 209 213 215 215 216 212 205 209 211
288 319 295 309 328 334 348 354 8 12 80 137 191 195 191 188 185 188 190 194 196 198 204 206 205 207 206 203 203 200 198 203 208 212 213 213 213 215 217 219 221 219 220 221
253 280 288 304 332 340 344 355 358 0 18 91 117 171 229 190 189 192 196 198 195 199 206 208 206 208 207 204 205 206 205 203 209 214 215 216 216 219 218 214 214 216 218 218
255 299 292 311 328 334 341 353 5 5 9 24 62 77 112 330 195 195 195 192 195 199 204 205 205 206 207 207 208 209 212 211 210 214 218 219 221 224 224 224 220 213 211 210
275 258 285 303 311 322 328 343 356 3 6 9 7 31 42 23 328 194 194 192 194 197 198 197 204 206 205 207 210 212 215 215 215 219 221 223 225 226 228 228 229 227 211 209
315 267 245 295 305 315 324 333 340 350 2 14 13 8 359 350 317 249 194 191 190 191 193 194 204 209 207 207 210 213 216 220 219 220 225 224 226 227 229 232 233 230 223 219
330 319 220 281 305 292 309 310 321 341 356 4 18 6 346 312 307 295 187 192 195 194 194 200 204 207 208 211 213 214 214 219 223 224 226 229 229 230 233 234 236 234 233 228
296 286 284 254 278 256 280 286 316 335 359 338 17 21 33 329 280 233 176 186 193 195 198 201 199 205 211 217 221 220 217 218 220 225 229 230 233 234 234 237 239 240 241 237
283 280 270 263 261 255 265 258 283 307 352 360 11 14 20 343 327 29 164 175 190 193 196 202 207 210 213 220 222 223 225 223 223 224 229 235 236 239 240 239 240 243 244 242
283 263 264 270 247 255 243 235 266 270 325 350 338 342 344 341 330 262 124 153 163 178 181 183 189 190 200 221 225 225 227 229 227 227 230 234 237 240 241 244 246 247 247 249
270 247 251 261 245 243 227 239 230 262 287 274 335 329 324 322 314 278 212 178 178 174 182 183 188 189 193 202 219 227 229 231 233 232 232 239 241 240 242 244 246 247 248 250
259 244 245 269 246 246 221 225 226 242 260 260 303 324 328 325 311 235 219 218 202 193 196 205 212 212 214 208 206 210 223 230 234 237 238 241 245 244 243 242 245 243 247 252
288 236 228 229 175 163 164 194 183 176 205 242 246 279 296 288 318 224 207 213 187 185 191 203 211 218 219 216 207 207 211 215 220 228 233 239 244 247 247 246 245 244 244 250
334 255 240 232 218 218 215 174 152 201 228 254 239 253 262 273 273 256 202 182 183 183 188 195 203 218 228 239 241 234 233 230 229 229 226 228 235 245 248 239 239 242 245 249
29 12 256 247 251 256 252 250 262 255 220 229 249 232 243 240 228 198 174 184 185 181 180 193 213 196 218 240 244 235 230 233 233 235 237 233 233 239 241 238 239 241 245 252
40 47 54 4 256 259 255 257 244 257 250 224 226 230 218 209 187 181 180 171 156 159 156 148 136 126 121 130 154 172 181 177 176 185 197 207 216 225 232 237 239 245 252 254
39 33 36 53 61 78 175 172 163 173 252 204 205 194 192 187 172 165 162 159 164 169 173 184 191 205 204 281 231 203 214 202 198 218 225 227 234 244 251 253 252 252 252 250